Location: Garos
(43.5000°N, 0.4667°W)
Time: 04:34:13
(UTC+00:00)

Cosmos 2333 Rocket - Pass Details

Date: 03 February 2023
Orbit: 837 x 864 km, 70.8° (Epoch: 26 March)

Event Time Altitude Azimuth Distance (km) Brightness Sun altitude
Rises 19:53:51 0° 226° (SW) 3,379 5.9 -28.9°
Reaches altitude 10° 19:56:26 10° 234° (SW) 2,451 5.2 -29.4°
Maximum altitude 20:01:42 40° 303° (WNW) 1,225 3.3 -30.3°
Enters shadow 20:04:28 25° 356° (N) 1,661 3.8 -30.8°
